{"data":{"norad_id":52497,"epoch":"2026-09-19T20:11:37.773888Z","epoch_age_seconds":120122,"freshness":"FRESH","line1":"1 52497U 22049AY  26262.84140942  .00020810  00000+0  62724-3 0  9998","line2":"2 52497  53.1609 247.1512 0001509  80.9533 279.1641 15.34303478241845","mean_motion":15.34303478,"eccentricity":0.0001509,"inclination_deg":53.1609,"raan_deg":247.1512,"arg_perigee_deg":80.9533,"mean_anomaly_deg":279.1641,"bstar":0.00062724,"rev_number":24184,"period_min":93.853661980684,"perigee_km":461.95781288654,"apogee_km":464.02246505708,"semimajor_km":6841.1271389718,"source":"CELESTRAK","updated_at":"2026-09-20T09:00:40.056633Z"}}